Weather History for Plattsmouth, NE

Change the Weather History Date:

Tuesday, June 17, 2014

  Actual Average (KOFF) Record (KOFF)
Temperature  
Mean Temperature 78 °F -  
Max Temperature 89 °F 80 °F 91 °F (2012)
Min Temperature 67 °F 61 °F 50 °F (1999)
Cooling Degree Days 13    
Growing Degree Days 28 (Base 50)    
Moisture  
Dew Point 68 °F    
Average Humidity 66    
Maximum Humidity 77    
Minimum Humidity 52    
Precipitation  
Precipitation 0.00 in - - ()
Sea Level Pressure  
Sea Level Pressure 29.75 in    
Wind  
Wind Speed 18 mph (SSE)    
Max Wind Speed 23 mph    
Max Gust Speed 33 mph    
Visibility 10 miles    
Events      
Averages and records for this station are not official NWS values.
T = Trace of Precipitation, MM = Missing Value Source: NWS Daily Summary

Daily Weather History Graph

Daily Weather History Graph

Search for Another Location

Airport:

Trip Planner

Search our weather history database for the weather conditions in past years. The results will help you decide how hot, cold, wet, or windy it might be!

Date:

Astronomy

Jun. 17, 2014 Rise Set
Actual Time 5:51 AM CDT 8:58 PM CDT
Civil Twilight 5:17 AM CDT 9:31 PM CDT
Nautical Twilight 4:34 AM CDT 10:14 PM CDT
Astronomical Twilight 3:43 AM CDT 11:05 PM CDT
Moon No Moon Rise 11:08 AM CDT (6/17)
Length of Visible Light 16h 14m
Length of Day
15h 06m
Waning Gibbous, 73% of the Moon is Illuminated
Jun 17
Waning Gibbous
Jun 19
Last Quarter
Jun 27
New
Jul 5
First Quarter
Jul 12
Full

Hourly Weather History & Observations

Time (CDT) Temp. Heat Index Dew Point Humidity Pressure Visibility Wind Dir Wind Speed Gust Speed Precip Events Conditions
12:15 AM 79.0 °F - 68.9 °F 71% 29.68 in 10.0 mi South 19.6 mph 28.8 mph N/A   Clear
12:35 AM 78.8 °F - 68.9 °F 72% 29.68 in 10.0 mi South 19.6 mph 26.5 mph N/A   Clear
1:15 AM 78.1 °F - 68.9 °F 73% 29.69 in 10.0 mi South 20.7 mph 26.5 mph N/A   Clear
1:35 AM 77.7 °F - 68.5 °F 73% 29.69 in 10.0 mi South 19.6 mph 26.5 mph N/A   Clear
1:55 AM 77.4 °F - 68.5 °F 74% 29.69 in 10.0 mi South 15.0 mph 23.0 mph N/A   Clear
2:15 AM 77.2 °F - 68.5 °F 75% 29.73 in 10.0 mi NE 6.9 mph - N/A   Clear
2:35 AM 77.0 °F - 68.9 °F 76% 29.76 in 10.0 mi NE 9.2 mph - N/A   Mostly Cloudy
2:55 AM 77.4 °F - 68.9 °F 75% 29.77 in 10.0 mi ENE 10.4 mph - N/A   Overcast
3:15 AM 72.5 °F - 62.4 °F 71% 29.79 in 10.0 mi NE 23.0 mph 28.8 mph N/A   Overcast
3:35 AM 69.3 °F - 61.3 °F 76% 29.79 in 10.0 mi NE 18.4 mph 28.8 mph N/A   Overcast
3:55 AM 69.6 °F - 61.0 °F 74% 29.81 in 10.0 mi ENE 17.3 mph 27.6 mph N/A   Overcast
4:15 AM 69.8 °F - 60.8 °F 73% 29.81 in 10.0 mi ENE 19.6 mph 27.6 mph N/A   Overcast
4:35 AM 68.9 °F - 60.8 °F 75% 29.82 in 10.0 mi ENE 19.6 mph 31.1 mph N/A   Overcast
4:55 AM 68.5 °F - 60.3 °F 75% 29.83 in 10.0 mi ENE 17.3 mph 27.6 mph N/A   Overcast
5:15 AM 68.7 °F - 59.9 °F 73% 29.83 in 10.0 mi East 19.6 mph 27.6 mph N/A   Overcast
5:35 AM 68.2 °F - 59.7 °F 74% 29.82 in 10.0 mi East 19.6 mph 25.3 mph N/A   Overcast
5:55 AM 68.0 °F - 59.4 °F 74% 29.83 in 10.0 mi East 19.6 mph 31.1 mph N/A   Overcast
6:15 AM 67.8 °F - 59.2 °F 74% 29.82 in 10.0 mi ESE 19.6 mph 25.3 mph N/A   Overcast
6:35 AM 68.0 °F - 59.0 °F 73% 29.81 in 10.0 mi ESE 19.6 mph 26.5 mph N/A   Overcast
6:55 AM 68.0 °F - 59.0 °F 73% 29.80 in 10.0 mi SE 19.6 mph 26.5 mph N/A   Scattered Clouds
7:35 AM 70.0 °F - 59.5 °F 69% 29.81 in 10.0 mi SE 16.1 mph 21.9 mph N/A   Clear
7:55 AM 70.5 °F - 59.9 °F 69% 29.79 in 10.0 mi SE 18.4 mph 25.3 mph N/A   Clear
8:15 AM 71.4 °F - 60.4 °F 68% 29.78 in 10.0 mi SE 17.3 mph 26.5 mph N/A   Clear
8:35 AM 72.3 °F - 61.5 °F 69% 29.77 in 10.0 mi SE 18.4 mph 26.5 mph N/A   Clear
8:55 AM 73.6 °F - 62.6 °F 68% 29.78 in 10.0 mi SE 18.4 mph 26.5 mph N/A   Clear
9:15 AM 74.5 °F - 63.9 °F 69% 29.77 in 10.0 mi SE 17.3 mph 26.5 mph N/A   Scattered Clouds
9:35 AM 75.9 °F - 64.9 °F 69% 29.77 in 10.0 mi SE 17.3 mph 32.2 mph N/A   Scattered Clouds
9:55 AM 77.0 °F - 66.0 °F 69% 29.76 in 10.0 mi SSE 16.1 mph 31.1 mph N/A   Clear
10:15 AM 78.6 °F - 67.5 °F 68% 29.76 in 10.0 mi SSE 16.1 mph 24.2 mph N/A   Clear
10:35 AM 80.4 °F 83.1 °F 68.2 °F 66% 29.75 in 10.0 mi SSE 17.3 mph 31.1 mph N/A   Clear
10:55 AM 80.4 °F 83.1 °F 68.2 °F 66% 29.75 in 10.0 mi SSE 17.3 mph 28.8 mph N/A   Clear
11:15 AM 81.5 °F 84.8 °F 69.3 °F 66% 29.75 in 10.0 mi SSE 18.4 mph 26.5 mph N/A   Scattered Clouds
11:35 AM 82.2 °F 86.0 °F 69.8 °F 66% 29.74 in 10.0 mi SSE 13.8 mph 23.0 mph N/A   Overcast
11:55 AM 81.9 °F 85.4 °F 69.4 °F 66% 29.74 in 10.0 mi SSE 18.4 mph 27.6 mph N/A   Overcast
12:15 PM 83.5 °F 87.7 °F 70.3 °F 64% 29.74 in 10.0 mi South 17.3 mph 25.3 mph N/A   Overcast
12:35 PM 84.0 °F 88.4 °F 70.2 °F 63% 29.74 in 10.0 mi South 16.1 mph 27.6 mph N/A   Mostly Cloudy
12:55 PM 84.6 °F 89.4 °F 70.5 °F 63% 29.73 in 10.0 mi South 15.0 mph 24.2 mph N/A   Mostly Cloudy
1:15 PM 85.5 °F 90.8 °F 71.2 °F 62% 29.72 in 7.0 mi South 16.1 mph 27.6 mph N/A   Mostly Cloudy
1:35 PM 86.2 °F 91.4 °F 70.7 °F 60% 29.72 in 10.0 mi South 23.0 mph 28.8 mph N/A   Mostly Cloudy
1:55 PM 87.3 °F 93.2 °F 71.2 °F 59% 29.72 in 7.0 mi South 21.9 mph 27.6 mph N/A   Scattered Clouds
2:15 PM 87.6 °F 92.7 °F 70.3 °F 56% 29.71 in 7.0 mi South 18.4 mph 27.6 mph N/A   Scattered Clouds
2:35 PM 87.8 °F 93.0 °F 70.3 °F 56% 29.71 in 10.0 mi South 23.0 mph 28.8 mph N/A   Mostly Cloudy
2:55 PM 88.0 °F 92.9 °F 70.0 °F 55% 29.71 in 7.0 mi South 21.9 mph 33.4 mph N/A   Mostly Cloudy
3:15 PM 89.1 °F 94.6 °F 70.3 °F 54% 29.70 in 7.0 mi South 17.3 mph 28.8 mph N/A   Scattered Clouds
3:35 PM 89.6 °F 95.7 °F 70.7 °F 54% 29.70 in 10.0 mi South 18.4 mph 27.6 mph N/A   Scattered Clouds
3:55 PM 89.4 °F 95.3 °F 70.7 °F 54% 29.70 in 10.0 mi SSE 18.4 mph 31.1 mph N/A   Scattered Clouds
4:15 PM 89.6 °F 95.7 °F 71.1 °F 54% 29.69 in 10.0 mi South 18.4 mph 27.6 mph N/A   Scattered Clouds
4:35 PM 89.4 °F 94.4 °F 69.6 °F 52% 29.69 in 10.0 mi South 21.9 mph 31.1 mph N/A   Clear
4:55 PM 89.6 °F 95.7 °F 71.1 °F 54% 29.70 in 10.0 mi South 21.9 mph 31.1 mph N/A   Scattered Clouds
5:15 PM 89.2 °F 94.9 °F 70.9 °F 54% 29.71 in 10.0 mi South 19.6 mph 29.9 mph N/A   Scattered Clouds
5:35 PM 88.7 °F 94.3 °F 70.7 °F 55% 29.71 in 10.0 mi South 19.6 mph 27.6 mph N/A   Mostly Cloudy
5:55 PM 88.0 °F 94.2 °F 71.4 °F 58% 29.71 in 10.0 mi South 13.8 mph 26.5 mph N/A   Scattered Clouds
6:15 PM 88.0 °F 94.2 °F 71.6 °F 58% 29.71 in 10.0 mi South 15.0 mph 23.0 mph N/A   Scattered Clouds
6:35 PM 88.3 °F 94.5 °F 71.4 °F 57% 29.71 in 10.0 mi South 16.1 mph 24.2 mph N/A   Scattered Clouds
6:55 PM 87.8 °F 93.8 °F 71.2 °F 58% 29.71 in 10.0 mi South 13.8 mph 24.2 mph N/A   Scattered Clouds
7:15 PM 87.3 °F 93.2 °F 71.4 °F 59% 29.71 in 10.0 mi South 16.1 mph 25.3 mph N/A   Scattered Clouds
7:35 PM 86.7 °F 92.5 °F 71.2 °F 60% 29.72 in 10.0 mi South 11.5 mph 20.7 mph N/A   Mostly Cloudy
7:55 PM 86.2 °F 92.2 °F 72.0 °F 62% 29.73 in 10.0 mi SSE 13.8 mph 20.7 mph N/A   Mostly Cloudy
8:15 PM 85.5 °F 91.5 °F 72.0 °F 64% 29.72 in 10.0 mi SSE 13.8 mph 19.6 mph N/A   Scattered Clouds
8:35 PM 84.4 °F 90.0 °F 72.0 °F 66% 29.72 in 10.0 mi SSE 13.8 mph 18.4 mph N/A   Clear
8:55 PM 83.8 °F 89.2 °F 72.0 °F 67% 29.72 in 10.0 mi SSE 13.8 mph 21.9 mph N/A   Clear
9:15 PM 82.8 °F 88.2 °F 72.5 °F 71% 29.71 in 10.0 mi SSE 16.1 mph 24.2 mph N/A   Clear
9:35 PM 82.6 °F 87.8 °F 72.1 °F 71% 29.72 in 10.0 mi SSE 17.3 mph 24.2 mph N/A   Clear
9:55 PM 82.4 °F 87.4 °F 72.1 °F 71% 29.74 in 10.0 mi SSE 16.1 mph 23.0 mph N/A   Clear
10:15 PM 81.5 °F 86.1 °F 72.0 °F 73% 29.75 in 10.0 mi SSE 16.1 mph 20.7 mph N/A   Clear
10:35 PM 81.3 °F 85.8 °F 72.0 °F 73% 29.77 in 10.0 mi SSE 15.0 mph - N/A   Clear
10:55 PM 80.8 °F 84.9 °F 71.8 °F 74% 29.77 in 10.0 mi SSE 11.5 mph - N/A   Clear
11:15 PM 80.1 °F 83.8 °F 72.0 °F 76% 29.77 in 10.0 mi SSE 15.0 mph 18.4 mph N/A   Clear
11:35 PM 79.7 °F - 72.0 °F 77% 29.77 in 10.0 mi SSE 13.8 mph 21.9 mph N/A   Clear